TimeMST,TemperatureF,Dew PointF,Humidity,Sea Level PressureIn,VisibilityMPH,Wind Direction,Wind SpeedMPH,Gust SpeedMPH,PrecipitationIn,Events,Conditions,WindDirDegrees,DateUTC
12:53 AM,28.0,18.0,66,30.22,10.0,South,8.1,-,N/A,,Clear,170,2013-02-02 07:53:00
2:53 AM,28.0,19.0,69,30.27,10.0,South,11.5,-,N/A,,Clear,170,2013-02-02 09:53:00
3:53 AM,28.0,19.0,69,30.27,10.0,South,10.4,-,N/A,,Clear,170,2013-02-02 10:53:00
5:53 AM,25.0,16.0,69,30.32,10.0,SSE,8.1,-,N/A,,Clear,150,2013-02-02 12:53:00
6:53 AM,25.0,14.0,63,30.33,10.0,SSE,8.1,-,N/A,,Partly Cloudy,150,2013-02-02 13:53:00
7:53 AM,28.9,14.0,54,30.32,10.0,South,9.2,-,N/A,,Partly Cloudy,170,2013-02-02 14:53:00
8:53 AM,36.0,16.0,44,30.32,10.0,South,6.9,-,N/A,,Partly Cloudy,180,2013-02-02 15:53:00
9:53 AM,43.0,10.9,27,30.31,10.0,South,6.9,-,N/A,,Partly Cloudy,190,2013-02-02 16:53:00
10:53 AM,46.0,9.0,22,30.28,10.0,SW,8.1,-,N/A,,Partly Cloudy,230,2013-02-02 17:53:00
11:53 AM,50.0,3.0,15,30.25,10.0,West,4.6,-,N/A,,Scattered Clouds,280,2013-02-02 18:53:00
12:53 PM,55.9,1.0,11,30.20,10.0,NW,12.7,-,N/A,,Scattered Clouds,310,2013-02-02 19:53:00
1:53 PM,57.0,1.9,11,30.19,10.0,North,10.4,-,N/A,,Scattered Clouds,350,2013-02-02 20:53:00
2:53 PM,55.9,1.9,11,30.20,10.0,NW,17.3,26.5,N/A,,Scattered Clouds,320,2013-02-02 21:53:00
3:53 PM,52.0,6.1,16,30.23,10.0,North,11.5,-,N/A,,Mostly Cloudy,350,2013-02-02 22:53:00
4:53 PM,46.9,14.0,27,30.27,10.0,East,5.8,-,N/A,,Mostly Cloudy,80,2013-02-02 23:53:00
5:53 PM,41.0,14.0,33,30.34,10.0,SE,6.9,-,N/A,,Scattered Clouds,130,2013-02-03 00:53:00
6:53 PM,37.9,12.9,36,30.38,10.0,SE,6.9,-,N/A,,Scattered Clouds,130,2013-02-03 01:53:00
7:53 PM,35.1,12.9,40,30.40,10.0,SSE,5.8,-,N/A,,Partly Cloudy,160,2013-02-03 02:53:00
8:53 PM,30.0,15.1,54,30.38,10.0,South,5.8,-,N/A,,Partly Cloudy,190,2013-02-03 03:53:00
9:53 PM,32.0,15.1,50,30.32,10.0,South,5.8,-,N/A,,Partly Cloudy,190,2013-02-03 04:53:00
10:53 PM,30.0,14.0,51,30.30,10.0,South,8.1,-,N/A,,Partly Cloudy,180,2013-02-03 05:53:00
11:53 PM,30.0,15.1,54,30.26,10.0,SSE,8.1,-,N/A,,Partly Cloudy,150,2013-02-03 06:53:00